LRBS Weather Reports


time (UTC)temp
C
wind
direction
speed
KPH
gust
KPH
rain 1hr
cm
rain 24hr
cm
rain mn
cm
humidity
%
barometer
mb
20260904101823 27 260 12.9 0.0 0.00 0.00 0.00 48 1017.0
20260904100320 27 260 12.9 0.0 0.00 0.00 0.00 48 1017.0
20260904094815 26 250 14.5 0.0 0.00 0.00 0.00 51 1017.0
20260904093314 26 250 14.5 0.0 0.00 0.00 0.00 51 1017.0
20260904091814 25 250 12.9 0.0 0.00 0.00 0.00 54 1018.0
20260904090314 25 250 12.9 0.0 0.00 0.00 0.00 54 1018.0
20260904084815 23 250 11.3 0.0 0.00 0.00 0.00 54 1017.0
20260904083314 23 250 11.3 0.0 0.00 0.00 0.00 54 1017.0
20260904081817 22 260 14.5 0.0 0.00 0.00 0.00 61 1018.0
20260904080315 22 260 14.5 0.0 0.00 0.00 0.00 61 1018.0
20260904074929 22 290 9.7 0.0 0.00 0.00 0.00 61 1018.0
20260904073315 22 290 9.7 0.0 0.00 0.00 0.00 61 1018.0
20260904071813 22 280 11.3 0.0 0.00 0.00 0.00 69 1017.0
20260904070315 22 280 11.3 0.0 0.00 0.00 0.00 69 1017.0
20260904064814 21 270 11.3 0.0 0.00 0.00 0.00 73 1017.0
20260904063314 21 270 11.3 0.0 0.00 0.00 0.00 73 1017.0
20260904061815 18 300 8.0 0.0 0.00 0.00 0.00 88 1017.0
20260904060314 18 300 8.0 0.0 0.00 0.00 0.00 88 1017.0
20260904054815 18 240 9.7 0.0 0.00 0.00 0.00 83 1017.0
20260904053315 18 240 9.7 0.0 0.00 0.00 0.00 83 1017.0
20260904051814 17 270 8.0 0.0 0.00 0.00 0.00 94 1017.0
20260904050314 17 270 8.0 0.0 0.00 0.00 0.00 94 1017.0
20260904044814 17 270 3.2 0.0 0.00 0.00 0.00 94 1017.0
20260904043314 17 270 3.2 0.0 0.00 0.00 0.00 94 1017.0
20260904041814 17 260 8.0 0.0 0.00 0.00 0.00 88 1017.0
20260904040314 17 260 8.0 0.0 0.00 0.00 0.00 88 1017.0
20260904034814 17 260 8.0 0.0 0.00 0.00 0.00 88 1017.0
20260904033314 17 260 8.0 0.0 0.00 0.00 0.00 88 1017.0
20260904031815 17 1.6 0.0 0.00 0.00 0.00 88 1017.0
20260904030314 17 1.6 0.0 0.00 0.00 0.00 88 1017.0
20260904024815 17 260 4.8 0.0 0.00 0.00 0.00 88 1016.0
20260904023315 17 260 4.8 0.0 0.00 0.00 0.00 88 1016.0
20260904021814 17 270 8.0 0.0 0.00 0.00 0.00 88 1016.0
20260904020315 17 270 8.0 0.0 0.00 0.00 0.00 88 1016.0
20260904014848 17 320 8.0 0.0 0.00 0.00 0.00 88 1016.0
20260904013314 17 320 8.0 0.0 0.00 0.00 0.00 88 1016.0
20260904011814 17 3.2 0.0 0.00 0.00 0.00 88 1016.0
20260904010314 17 3.2 0.0 0.00 0.00 0.00 88 1016.0
20260904004815 18 120 4.8 0.0 0.00 0.00 0.00 78 1016.0
20260904003315 18 120 4.8 0.0 0.00 0.00 0.00 78 1016.0
20260904001814 17 120 11.3 0.0 0.00 0.00 0.00 94 1016.0
20260904000315 17 120 11.3 0.0 0.00 0.00 0.00 94 1016.0
20260903234814 17 130 16.1 0.0 0.00 0.00 0.00 94 1017.0
20260903233314 17 130 16.1 0.0 0.00 0.00 0.00 94 1017.0
20260903224812 21 3.2 0.0 0.00 0.00 0.00 64 1017.0
20260903223314 21 3.2 0.0 0.00 0.00 0.00 64 1017.0
20260903221814 22 360 8.0 0.0 0.00 0.00 0.00 61 1017.0
20260903220314 22 360 8.0 0.0 0.00 0.00 0.00 61 1017.0
20260903214814 22 350 8.0 0.0 0.00 0.00 0.00 61 1016.0
20260903213323 22 350 8.0 0.0 0.00 0.00 0.00 61 1016.0
20260903211818 21 320 11.3 0.0 0.00 0.00 0.00 64 1017.0
20260903210315 21 320 11.3 0.0 0.00 0.00 0.00 64 1017.0
20260903204925 22 0 0.0 0.0 0.00 0.00 0.00 65 1016.0
20260903203315 22 0 0.0 0.0 0.00 0.00 0.00 65 1016.0
20260903201814 22 3.2 0.0 0.00 0.00 0.00 61 1016.0
20260903200314 22 3.2 0.0 0.00 0.00 0.00 61 1016.0
20260903194815 22 0 0.0 0.0 0.00 0.00 0.00 57 1016.0
20260903193316 22 0 0.0 0.0 0.00 0.00 0.00 57 1016.0
20260903191814 22 40 3.2 0.0 0.00 0.00 0.00 57 1016.0
20260903190315 22 40 3.2 0.0 0.00 0.00 0.00 57 1016.0
20260903184814 22 50 4.8 0.0 0.00 0.00 0.00 57 1016.0
20260903183316 22 50 4.8 0.0 0.00 0.00 0.00 57 1016.0
20260903181814 22 50 8.0 0.0 0.00 0.00 0.00 57 1016.0
20260903180314 22 50 8.0 0.0 0.00 0.00 0.00 57 1016.0
20260903174814 23 60 8.0 0.0 0.00 0.00 0.00 54 1016.0
20260903173315 23 60 8.0 0.0 0.00 0.00 0.00 54 1016.0
20260903171815 25 40 8.0 0.0 0.00 0.00 0.00 47 1015.0
20260903170315 25 40 8.0 0.0 0.00 0.00 0.00 47 1015.0
20260903164814 27 70 8.0 0.0 0.00 0.00 0.00 42 1015.0
20260903163314 27 70 8.0 0.0 0.00 0.00 0.00 42 1015.0
20260903161814 28 120 9.7 0.0 0.00 0.00 0.00 37 1015.0
20260903160315 28 120 9.7 0.0 0.00 0.00 0.00 37 1015.0
20260903154815 28 60 4.8 0.0 0.00 0.00 0.00 37 1015.0
20260903153315 28 60 4.8 0.0 0.00 0.00 0.00 37 1015.0
20260903151815 30 80 11.3 0.0 0.00 0.00 0.00 35 1015.0
20260903150315 30 80 11.3 0.0 0.00 0.00 0.00 35 1015.0
20260903144814 30 8.0 0.0 0.00 0.00 0.00 35 1015.0
20260903143315 30 8.0 0.0 0.00 0.00 0.00 35 1015.0
20260903141815 30 70 8.0 0.0 0.00 0.00 0.00 35 1016.0
20260903140314 30 70 8.0 0.0 0.00 0.00 0.00 35 1016.0
20260903134814 30 60 11.3 0.0 0.00 0.00 0.00 38 1016.0
20260903133314 30 60 11.3 0.0 0.00 0.00 0.00 38 1016.0
20260903131814 30 4.8 0.0 0.00 0.00 0.00 38 1016.0
20260903130315 30 4.8 0.0 0.00 0.00 0.00 38 1016.0
20260903124814 28 50 11.3 0.0 0.00 0.00 0.00 43 1016.0
20260903123325 28 50 11.3 0.0 0.00 0.00 0.00 43 1016.0
20260903121814 30 70 11.3 0.0 0.00 0.00 0.00 40 1016.0
20260903120315 30 70 11.3 0.0 0.00 0.00 0.00 40 1016.0
20260903114815 28 50 12.9 0.0 0.00 0.00 0.00 40 1017.0
20260903113314 28 50 12.9 0.0 0.00 0.00 0.00 40 1017.0
20260903111815 27 50 12.9 0.0 0.00 0.00 0.00 45 1017.0
20260903110314 27 50 12.9 0.0 0.00 0.00 0.00 45 1017.0
20260903104814 27 60 16.1 0.0 0.00 0.00 0.00 48 1017.0
20260903103314 27 60 16.1 0.0 0.00 0.00 0.00 48 1017.0